[[{"header":{"parameterUnit":"m.s-1","parameterCategory":1,"la1":30.2991,"la2":30.254,"lo1":-89.0895,"lo2":-89.0444,"dy":0.0017,"dx":0.0017,"nx":28,"ny":28,"refTime":"2024-08-25T03:00:00:Z","depth":0,"parameterNumber":2,"parameterNumberName":"U-component_of_WINDS"},"data":[0,0,0,0,0,0,0,0,0,0,0,0,0,0,0,0,0,0,0,0,0,0,0,0,0,0,0,0,0,0,0,0,0,0,0,0,0,0,0,0,0,0,0,0,0,0,0,0,0,0,0,0,0,0,0,0,0,0,-3.6237,-3.6237,0,-3.6232,-3.6232,-3.6232,-3.6111,-3.6108,-3.6104,-3.6101,-3.6097,-3.61,-3.6103,0,0,0,0,0,0,0,0,0,0,0,0,0,-3.6142,-3.6144,-3.6237,-3.6237,-3.6237,-3.6232,-3.6232,-3.6232,-3.6111,-3.6107,-3.6104,-3.61,-3.6096,-3.61,-3.6103,0,0,0,0,0,0,0,0,0,0,0,0,0,-3.6165,-3.6145,-3.6237,-3.6176,-3.6171,-3.6233,-3.6232,-3.6232,-3.6112,-3.6107,-3.6103,-3.6098,-3.6095,-3.6099,-3.6104,-3.6224,0,0,-3.6117,-3.6118,0,0,0,0,0,0,0,0,-3.6164,-3.6169,-3.6185,-3.6181,-3.6174,-3.6167,-3.6197,-3.623,-3.6113,-3.6134,-3.6101,-3.6096,-3.6125,-3.6126,-3.6135,-3.6224,-3.6223,-3.6117,-3.6119,-3.6121,-3.6122,0,0,0,0,0,0,0,-3.6162,-3.6168,-3.6235,-3.6186,-3.6179,-3.6149,-3.6147,-3.6203,-3.6156,-3.6132,-3.6123,-3.6124,-3.6121,-3.6132,-3.6135,-3.6223,-3.6117,-3.6121,-3.6123,-3.6125,-3.6408,-3.6413,0,0,0,0,0,0,-3.6169,-3.6168,-3.6236,-3.6235,-3.6157,-3.6155,-3.6152,-3.6174,-3.6155,-3.6147,-3.6128,-3.6119,-3.6127,-3.613,-3.6134,-3.6271,-3.6121,-3.6125,-3.6128,-3.6403,-3.6409,-3.6414,0,0,0,0,0,0,-3.6167,-3.6176,-3.6236,-3.6199,-3.6204,-3.6161,-3.6187,-3.6177,-3.6188,-3.6152,-3.6143,-3.6148,-3.6123,-3.6128,-3.6202,-3.627,-3.6127,-3.6131,-3.6397,-3.6405,-3.6412,-3.6549,0,0,0,0,0,0,-3.6165,-3.6176,-3.6222,-3.6201,-3.6207,-3.6304,-3.6191,-3.618,-3.6195,-3.6182,-3.6168,-3.6162,-3.612,-3.6196,-3.6206,-3.6273,-3.6134,-3.6391,-3.6401,-3.6409,-3.6539,-3.6561,-3.658,0,0,0,0,0,-3.6162,-3.6261,-3.6225,-3.6234,-3.6262,-3.6308,-3.6312,-3.6261,-3.6201,-3.6246,-3.6223,-3.6162,-3.6261,-3.6205,-3.6215,-3.6284,-3.6386,-3.6398,-3.6409,-3.6529,-3.6556,-3.6579,0,0,0,0,0,0,-3.6292,-3.6257,-3.6216,-3.6312,-3.6314,-3.6288,-3.6343,-3.6292,-3.6311,-3.6299,-3.6236,-3.6234,-3.6317,-3.6308,-3.6246,-3.6399,-3.6313,-3.6327,-3.6401,-3.6426,-3.6447,-3.6446,-3.6138,0,0,0,0,0,-3.6332,-3.6372,-3.6339,-3.6427,-3.643,-3.6387,-3.6405,-3.6366,-3.6366,-3.6366,-3.6348,-3.6351,-3.6382,-3.6404,-3.6431,-3.6537,-3.6532,-3.659,-3.661,-3.6627,-3.6639,-3.6693,-3.6718,-3.6451,-3.6451,-3.6451,0,0,-3.6414,-3.64,-3.6429,-3.6452,-3.6449,-3.6492,-3.6388,-3.6438,-3.6469,-3.6374,-3.6441,-3.6429,-3.6427,-3.6518,-3.6556,-3.6513,-3.6712,-3.6642,-3.6655,-3.6658,-3.6707,-3.6733,-3.6755,-3.6459,-3.6458,-3.6456,0,0,-3.6585,-3.658,-3.665,-3.6649,-3.6646,-3.6616,-3.6634,-3.6615,-3.6603,-3.667,-3.6599,-3.6635,-3.6691,-3.6692,-3.67,-3.6872,-3.6815,-3.6882,-3.6989,-3.7042,-3.7063,-3.7081,-3.7141,-3.7163,-3.6895,-3.6895,-3.6895,0,-3.6688,-3.6749,-3.6693,-3.6747,-3.6759,-3.6675,-3.6745,-3.6747,-3.6754,-3.6763,-3.6714,-3.6782,-3.6775,-3.6863,-3.6905,-3.6915,-3.6932,-3.6883,-3.7064,-3.7082,-3.7098,-3.7154,-3.7177,-3.6903,-3.6902,-3.6901,-3.6901,0,-3.6874,-3.6918,-3.6976,-3.6982,-3.7001,-3.7063,-3.7017,-3.7042,-3.7002,-3.6978,-3.7047,-3.7036,-3.7058,-3.7077,-3.7039,-3.716,-3.7132,-3.7075,-3.6987,-3.7133,-3.7184,-3.7205,-3.6915,-3.6912,-3.6909,-3.6907,0,0,-3.7126,-3.7101,-3.7123,-3.7124,-3.7114,-3.7147,-3.7205,-3.7227,-3.7249,-3.7256,-3.7303,-3.7352,-3.7298,-3.7308,-3.7269,-3.7316,-3.745,-3.7252,-3.7251,-3.7288,-3.7581,-3.7623,-3.7649,-3.7413,-3.7417,-3.742,-3.7581,0,-3.729,-3.7388,-3.7339,-3.7443,-3.7481,-3.7401,-3.7452,-3.7451,-3.743,-3.746,-3.7437,-3.7472,-3.74,-3.7404,-3.7447,-3.7425,-3.7508,-3.7413,-3.7455,-3.7458,-3.7457,-3.7676,-3.7721,-3.7872,-3.7601,-3.7604,-3.7606,0,-3.7494,-3.7509,-3.7616,-3.7597,-3.7611,-3.7658,-3.7673,-3.7703,-3.77,-3.7681,-3.7692,-3.7641,-3.7697,-3.7611,-3.7687,-3.7623,-3.7638,-3.7629,-3.7634,-3.7635,-3.754,-3.7681,-3.792,-3.7942,-3.7638,-3.7635,-3.7633,0,-3.7665,-3.7712,-3.7781,-3.7785,-3.7766,-3.78,-3.7793,-3.7786,-3.7801,-3.7815,-3.7824,-3.7845,-3.7856,-3.7873,-3.7829,-3.7771,-3.791,-3.7821,-3.7895,-3.7897,-3.7927,-3.7925,-3.817,-3.794,-3.794,-3.7939,-3.7939,0,-3.7852,-3.7921,-3.7857,-3.79,-3.7974,-3.7918,-3.7992,-3.7977,-3.7971,-3.8009,-3.7943,-3.798,-3.7921,-3.7953,-3.7919,-3.7986,-3.7992,-3.7978,-3.7968,-3.7983,-3.7984,-3.799,-3.7978,-3.7945,-3.7944,-3.7943,-3.7942,0,-3.8055,-3.8016,-3.8086,-3.8061,-3.8057,-3.8112,-3.8091,-3.8129,-3.8103,-3.8152,-3.8161,-3.8121,-3.8154,-3.8113,-3.8143,-3.812,-3.8211,-3.8186,-3.8211,-3.8204,-3.8279,-3.8272,-3.8535,-3.8566,-3.8318,-3.8321,-3.8323,0,-3.8177,-3.8227,-3.8207,-3.8227,-3.8224,-3.8259,-3.8274,-3.822,-3.8239,-3.8239,-3.8278,-3.8305,-3.8324,-3.8382,-3.8355,-3.8378,-3.8352,-3.8443,-3.8355,-3.8368,-3.8351,-3.8348,-3.8352,-3.846,-3.8463,-3.8466,-3.8467,0,-3.8395,-3.8373,-3.8397,-3.8415,-3.8434,-3.8446,-3.8452,-3.8473,-3.8417,-3.8441,-3.8474,-3.8489,-3.8519,-3.8547,-3.8562,-3.8555,-3.8503,-3.8495,-3.8513,-3.8529,-3.8541,-3.8533,-3.8258,-3.8489,-3.8487,-3.8486,-3.8484,-3.8483,-3.856,-3.86,-3.8592,-3.8621,-3.862,-3.8627,-3.8661,-3.8639,-3.8666,-3.8685,-3.8652,-3.8694,-3.8689,-3.8704,-3.8703,-3.8734,-3.8695,-3.8722,-3.8728,-3.8735,-3.8746,-3.8537,-3.8737,-3.8737,-3.8736,-3.8735,-3.8735,0,-3.8774,-3.8764,-3.8791,-3.8801,-3.8824,-3.8772,-3.8776,-3.8798,-3.8835,-3.8835,-3.8854,-3.8892,-3.8919,-3.8895,-3.8916,-3.8946,-3.8922,-3.8954,-3.895,-3.8949,-3.8781,-3.8762,-3.8972,-3.8972,-3.8972,-3.8972,-3.8972,-3.8972,-3.8887,-3.8952,-3.8929,-3.8992,-3.8982,-3.9021,-3.9028,-3.9034,-3.9033,-3.9078,-3.9099,-3.9083,-3.9073,-3.9093,-3.9116,-3.9108,-3.9118,-3.9158,-3.9142,-3.8985,-3.8961,-3.8939,-3.8921,-3.9161,-3.9162,-3.9307,-3.9309,-3.931]},{"header":{"parameterUnit":"m.s-1","parameterCategory":1,"la1":30.2991,"la2":30.254,"lo1":-89.0895,"lo2":-89.0444,"dy":0.0017,"dx":0.0017,"nx":28,"ny":28,"refTime":"2024-08-25T03:00:00:Z","depth":0,"parameterNumber":3,"parameterNumberName":"V-component_of_WINDS"},"data":[0,0,0,0,0,0,0,0,0,0,0,0,0,0,0,0,0,0,0,0,0,0,0,0,0,0,0,0,0,0,0,0,0,0,0,0,0,0,0,0,0,0,0,0,0,0,0,0,0,0,0,0,0,0,0,0,0,0,1.5335,1.5335,0,1.5327,1.5327,1.5327,1.5309,1.5309,1.5309,1.5308,1.53,1.53,1.5301,0,0,0,0,0,0,0,0,0,0,0,0,0,1.5335,1.5335,1.5335,1.5335,1.5335,1.5327,1.5327,1.5327,1.5309,1.5309,1.5308,1.5308,1.53,1.53,1.5301,0,0,0,0,0,0,0,0,0,0,0,0,0,1.5332,1.5336,1.5335,1.5325,1.5324,1.5327,1.5327,1.5327,1.5309,1.5309,1.5308,1.5308,1.53,1.53,1.5301,1.5312,0,0,1.5301,1.5301,0,0,0,0,0,0,0,0,1.5332,1.5332,1.5327,1.5326,1.5325,1.5319,1.5324,1.5322,1.531,1.5315,1.5308,1.5308,1.5307,1.5306,1.5306,1.5312,1.5312,1.5301,1.5301,1.5301,1.5301,0,0,0,0,0,0,0,1.5333,1.5332,1.5332,1.5327,1.5325,1.5321,1.532,1.5324,1.5314,1.5314,1.5313,1.5312,1.5306,1.5306,1.5306,1.5312,1.5301,1.5301,1.5301,1.5302,1.5327,1.5327,0,0,0,0,0,0,1.5334,1.5333,1.5332,1.5331,1.5327,1.5322,1.532,1.5321,1.5314,1.5312,1.5313,1.5312,1.5306,1.5306,1.5305,1.5318,1.5301,1.5302,1.5302,1.5326,1.5327,1.5328,0,0,0,0,0,0,1.5334,1.5334,1.5332,1.5332,1.5331,1.5322,1.5323,1.5321,1.5321,1.5313,1.5311,1.5314,1.5305,1.5305,1.5311,1.5318,1.5302,1.5302,1.5326,1.5327,1.5327,1.5345,0,0,0,0,0,0,1.5334,1.5334,1.5339,1.5332,1.5331,1.5338,1.5323,1.5321,1.5321,1.532,1.5314,1.5312,1.5305,1.5311,1.5311,1.5318,1.5302,1.5325,1.5326,1.5327,1.5344,1.5346,1.5348,0,0,0,0,0,1.5334,1.5344,1.5339,1.5339,1.5336,1.5338,1.5338,1.5329,1.5322,1.5326,1.5321,1.5312,1.5317,1.5311,1.5312,1.5319,1.5324,1.5326,1.5327,1.5342,1.5346,1.5348,0,0,0,0,0,0,1.5352,1.5343,1.5337,1.5345,1.5342,1.5335,1.534,1.5333,1.5332,1.5331,1.532,1.5319,1.5326,1.5323,1.5317,1.533,1.532,1.5321,1.5331,1.5334,1.5337,1.5337,1.5302,0,0,0,0,0,1.5356,1.5358,1.5351,1.5358,1.5357,1.5349,1.5349,1.5343,1.534,1.5339,1.5334,1.5332,1.5333,1.5334,1.5334,1.5344,1.5342,1.5349,1.5351,1.5353,1.5354,1.5359,1.5361,1.5332,1.5332,1.5332,0,0,1.5366,1.5361,1.5363,1.5362,1.5359,1.5361,1.5348,1.5351,1.5353,1.5339,1.5344,1.5341,1.5337,1.5345,1.5348,1.5343,1.5362,1.5355,1.5356,1.5356,1.536,1.5363,1.5365,1.5333,1.5333,1.5332,0,0,1.5384,1.5382,1.5387,1.5385,1.5381,1.5376,1.5377,1.5371,1.5368,1.5373,1.5363,1.5365,1.5367,1.5365,1.5364,1.5383,1.5375,1.5383,1.5396,1.54,1.5402,1.5404,1.541,1.5413,1.5385,1.5385,1.5385,0,1.5397,1.54,1.5391,1.5395,1.5394,1.5383,1.5388,1.5387,1.5383,1.5383,1.5377,1.538,1.5377,1.5383,1.5388,1.5388,1.5389,1.5383,1.5403,1.5405,1.5406,1.5412,1.5414,1.5386,1.5386,1.5385,1.5385,0,1.5415,1.5417,1.5422,1.5419,1.5419,1.5424,1.5416,1.5418,1.5412,1.5407,1.5412,1.5408,1.5408,1.5409,1.5403,1.5415,1.5412,1.5405,1.5394,1.541,1.5415,1.5417,1.5387,1.5387,1.5386,1.5386,0,0,1.5443,1.5435,1.5437,1.5435,1.5431,1.5432,1.5437,1.5436,1.5437,1.5436,1.5439,1.5441,1.5435,1.5434,1.5428,1.5432,1.5447,1.5425,1.5424,1.5428,1.5459,1.5463,1.5466,1.5442,1.5442,1.5443,1.5459,0,1.5459,1.5466,1.5459,1.5467,1.5469,1.5458,1.5462,1.546,1.5456,1.5457,1.5453,1.5454,1.5446,1.5445,1.5449,1.5444,1.5452,1.5443,1.5444,1.5444,1.5444,1.5469,1.5473,1.5489,1.5461,1.5461,1.5461,0,1.5479,1.5478,1.5487,1.5481,1.5482,1.5486,1.5484,1.5486,1.5483,1.548,1.5479,1.5472,1.5477,1.5467,1.5472,1.5466,1.5467,1.5465,1.5465,1.5464,1.5453,1.5467,1.5493,1.5495,1.5464,1.5464,1.5464,0,1.5498,1.5499,1.5504,1.5503,1.5497,1.55,1.5498,1.5495,1.5495,1.5494,1.5494,1.5494,1.5494,1.5494,1.5487,1.5481,1.5493,1.5483,1.549,1.5491,1.5492,1.5492,1.5518,1.5495,1.5495,1.5494,1.5494,0,1.5516,1.5521,1.5512,1.5515,1.5521,1.5513,1.5519,1.5515,1.5513,1.5515,1.5507,1.5509,1.55,1.5502,1.5497,1.5502,1.5502,1.5499,1.5498,1.5499,1.55,1.5499,1.5497,1.5495,1.5495,1.5495,1.5495,0,1.5537,1.5531,1.5536,1.553,1.5529,1.5533,1.5529,1.5531,1.5527,1.553,1.553,1.5524,1.5525,1.5519,1.5519,1.5516,1.5523,1.552,1.5524,1.5522,1.553,1.5529,1.5555,1.5558,1.5533,1.5534,1.5534,0,1.5549,1.5553,1.5548,1.5548,1.5547,1.5548,1.5548,1.5541,1.5542,1.5539,1.5542,1.5543,1.5543,1.5546,1.5541,1.5541,1.5538,1.5547,1.5537,1.5539,1.5537,1.5536,1.5536,1.5548,1.5549,1.5549,1.5549,0,1.557,1.5567,1.5567,1.5567,1.5567,1.5567,1.5565,1.5567,1.5559,1.556,1.5561,1.5561,1.5562,1.5562,1.5562,1.556,1.5553,1.5552,1.5554,1.5555,1.5556,1.5555,1.5528,1.5551,1.5551,1.5551,1.5551,1.5551,1.5586,1.5589,1.5586,1.5586,1.5585,1.5584,1.5586,1.5582,1.5583,1.5583,1.5579,1.5581,1.5578,1.5577,1.5576,1.5577,1.5573,1.5575,1.5575,1.5576,1.5577,1.5557,1.5577,1.5577,1.5577,1.5577,1.5577,0,1.5606,1.5603,1.5604,1.5603,1.5604,1.5598,1.5596,1.5597,1.5599,1.5598,1.5598,1.5599,1.56,1.5596,1.5596,1.5598,1.5595,1.5598,1.5597,1.5597,1.5581,1.5579,1.5601,1.5601,1.5601,1.5601,1.5601,1.5601,1.5616,1.562,1.5617,1.5621,1.5618,1.562,1.562,1.5619,1.5618,1.562,1.562,1.5617,1.5615,1.5615,1.5615,1.5614,1.5614,1.5618,1.5616,1.5601,1.5598,1.5596,1.5594,1.5619,1.5619,1.5632,1.5632,1.5632]}]]